Location: Recife
(8.0585°S, 34.8848°W)
Time: 13:14:12
(UTC-03:00)

Tiros 1 - Pass Details

Date: 18 April 2026
Orbit: 618 x 648 km, 48.4° (Epoch: 11 May)

Event Time Altitude Azimuth Distance (km) Brightness Sun altitude
Rises 17:03:24 0° 356° (N) 2,932 10.7 2.2°
Reaches altitude 10° 17:06:52 10° 23° (NNE) 2,032 9.6 1.4°
Maximum altitude 17:09:08 13° 52° (NE) 1,817 9.1 0.8°
Drops below altitude 10° 17:11:25 10° 82° (E) 2,041 9.1 0.3°
Enters shadow 17:14:45 - 107° (ESE) 2,909 9.8 -0.6°
Sets 17:14:54 0° 108° (ESE) 2,956 - -0.6°
